ARIANE 5 DEB (SYLDA)

基本信息
目录编号:
42817
目录名称:
ARIANE 5 DEB (SYLDA)
国际标识:
2017-040D
轨道中心:
EARTH
物体状态:
在轨
发射日期:
2017-06-28 UTC
轨道信息
数据来源: 国际轨道数据
星历时间: 2026-07-13T23:18:42+0800
半长轴: 14821.977km
偏心率: 0.5548361
轨道倾角: 2.861°
近地点辐角: 19.279°
升交点赤经: 316.237°
平近点角: 355.300°
近地点: 220.072km
远地点: 16667.608km
周期: 299.308分钟
每日圈数: 4.811091
详细信息
发射场:
FRGUI
轨道高度:
LEO
数据来源:
AOE Integration Group
参考系:
TEME
时间系统:
UTC
历元类型:
SGP4
2D轨道图
3D轨道图
轨道高度分析图
轨道倾角分析图
轨道综合分析图
查看轨道综合分析图